www.pogodaiklimat.ru

Погода и климат >> Архив погоды >> Сенегал >> Kolda


ПОГОДА в Kolda

  • Прогноз погоды в Kolda
  • Монитор погоды в Kolda
  • Климат города

АРХИВ ПОГОДЫ в Kolda

Время (UTC), дата Ветер
(напр.,м/с)
 
Видим.   Явления Облачность Т
(С)
Тd
(С)
f
(%)
Тe
(С)
Тes
(С)
Комфортность P
(гПа)
Po
(гПа)
Тmin
(С)
Tmax
(С)
R
(мм)
R24
(мм)
S
(см)
00 14.09 штиль 0 8000 м зарница {гроза, дождь} 9/5 600 м
[Cb cap Ac As]
+26.0 +25.2 95 +37 +37 очень
душно
1012.6 1011.5 2
03 14.09 штиль 0 8000 м 9/4 480 м
[Sc Ac As]
+25.5 +24.9 96 +36 +36 очень
душно
1011.2 1010.1
06 14.09 штиль 0 8000 м 9/9 480 м
[Sc]
+25.2 +24.9 98 +36 +36 очень
душно
1011.6 1010.5 +24.5 2
09 14.09 штиль 0 10 км 8/8 900 м
[Sc]
+27.2 +25.8 92 +40 +42 очень
душно
1013.5 1012.4
12 14.09 штиль 0 10 км слабый дождь 10/0
[Ac As]
+22.9 +21.5 92 +31 +40 очень
душно
1012.5 1011.4 12
15 14.09 0 10 км 1/0
[Ci sp]
+27.0 +23.4 81 1010.2 1009.1
18 14.09 ЮВ 1 10 км 8/0
[Ac trans Ci sp]
+29.5 +24.5 75 +42 +43 опасность
перегрева
1010.3 1009.2 +30.0 12
21 14.09 штиль 0 8000 м 5/0
[Ci sp]
+26.5 +25.4 94 +39 +39 очень
душно
1011.0 1009.9
00 15.09 ЮВ 1 8000 м 3/0
[Ci sp]
+25.4 +24.7 96 +36 +36 очень
душно
1012.4 1010.3
03 15.09 штиль 0 8000 м 4/0
[Ci sp]
+25.0 +24.8 99 +35 +35 очень
душно
1012.8 1011.7
06 15.09 штиль 0 8000 м 4/0
[Ci sp]
+23.9 +23.3 96 +32 +32 очень
душно
1011.3 1010.2 +23.5 12
09 15.09 Ю 1 10 км 6/0
[Ac trans Ci sp]
+25.5 +23.3 88 +34 +39 очень
душно
1012.7 1011.6
12 15.09 С 1 10 км 6/6 480 м
[Cu hum]
+30.0 +24.5 72 +42 +51 опасность
перегрева
1012.9 1011.8
15 15.09 СЗ 1 10 км 6/6 480 м
[Cu med, cong]
+33.5 +25.1 62 +48 +55 опасность
перегрева
1011.1 1010.0
18 15.09 штиль 0 10 км 3/3 480 м
[Sc]
+33.3 +25.4 63 +48 +49 опасность
перегрева
1010.2 1009.1 +34.5
21 15.09 штиль 0 8000 м зарница 1/1 900 м
[Cb cap]
+29.0 +27.1 90 +46 +46 опасность
перегрева
1012.4 1011.3
00 16.09 штиль 0 8000 м зарница 1/1 900 м
[Cb cap]
+26.3 +24.4 89 +37 +37 очень
душно
1016.8 1012.7
03 16.09 штиль 0 8000 м ясно +25.2 +24.5 96 +35 +35 очень
душно
1012.4 1011.3
06 16.09 штиль 0 8000 м ясно +25.0 +24.4 96 +35 +35 очень
душно
1012.3 1011.2 +24.5
09 16.09 штиль 0 10 км 5/0
[Ac trans]
+27.6 +25.8 90 +41 +46 опасность
перегрева
1013.0 1011.9
12 16.09 ЮЗ 1 10 км 5/3 600 м
[Cu hum Ac cast]
+32.0 +25.9 70 +47 +60 опасность
перегрева
1012.3 1011.2
15 16.09 ЮЗ 1 10 км 6/6 600 м
[Cu hum]
+34.8 +26.4 62 +51 +59 опасность
перегрева
1010.3 1009.2
18 16.09 Ю 1 10 км 5/4 600 м
[Sc Ac trans]
+33.8 +26.5 66 +51 +52 опасность
перегрева
1009.6 1008.5 +35.6
21 16.09 штиль 0 8000 м 5/0
[Ac trans]
+30.3 +27.9 87 +50 +50 опасность
перегрева
1010.5 1009.4
00 17.09 штиль 0 8000 м 4/0
[Ac trans]
+28.3 +27.2 94 +45 +45 опасность
перегрева
1011.8 1010.7
03 17.09 ЮЗ 1 8000 м 9/9 600 м
[Sc]
+27.1 +26.3 95 +41 +41 опасность
перегрева
1010.4 1009.3
06 17.09 ЮЗ 1 8000 м 6/6 600 м
[Sc]
+26.8 +25.8 94 +40 +40 очень
душно
1011.4 1010.3 +26.4
09 18.09 СВ 1 10 км 6/0
[Ac trans]
+26.3 +24.4 89 +37 +41 очень
душно
1011.2 1010.1
12 18.09 С 2 10 км 6/5 600 м
[Cu med, cong Ac trans]
+32.4 +26.0 69 +48 +57 опасность
перегрева
1011.6 1010.5
15 18.09 В 2 10 км гроза без осадков {дождь} 9/9 600 м
[Cb cap]
+28.0 +25.3 85 +41 +42 опасность
перегрева
1009.8 1008.7
18 18.09 штиль 0 10 км гроза, ливневой дождь 10/4 600 м
[Cb cap Ac As]
+23.7 +23.3 98 +32 +32 очень
душно
1010.8 1009.7 +33.0 31
21 18.09 штиль 0 8000 м {дождь} 9/9 600 м
[Sc]
+24.0 +23.3 96 +32 +32 очень
душно
1010.8 1009.7
00 19.09 штиль 0 8000 м {гроза, дождь} 9/0
[Ac As]
+24.0 +24.0 100 +33 +33 очень
душно
1012.1 1011.0 4
03 19.09 штиль 0 8000 м 9/9 600 м
[Sc]
+23.8 +23.8 100 +32 +32 очень
душно
1011.1 1010.0
06 19.09 штиль 0 8000 м 9/9 600 м
[Sc]
+24.0 +24.0 100 +33 +33 очень
душно
1011.3 1010.2 +23.2 35
09 19.09 штиль 0 10 км 9/0
[Ac As]
+24.9 +24.8 99 +35 +38 очень
душно
1012.6 1011.5
00 20.09 штиль 0 8000 м 8/0
[Ac As]
+27.5 +26.8 96 +43 +43 опасность
перегрева
1013.8 1012.7
03 20.09 штиль 0 8000 м 8/0
[Ac trans]
+26.5 +25.8 96 +39 +39 очень
душно
1011.7 1010.6
06 20.09 штиль 0 8000 м 9/0
[Ac As]
+25.8 +25.4 98 +38 +38 очень
душно
1011.7 1010.6 +25.5

 

Местоположение метеостанции Kolda (Сенегал): широта 12.88 долгота -14.96 высота над уровнем моря 10 м.

В архиве по умолчанию представлена погода в Kolda за последнюю неделю. Архивные данные за месяц целиком и за предыдущие месяцы, начиная с января 2011 года, Вы можете получить, выбрав интересующий диапазон дат из раскрывающегося списка и нажав кнопку "Ввод!".


*Определитесь, кто Вы:
робот инопланетянин человек

Внимание! Время в таблицах - всемирное. Для получения местного времени необходимо прибавить поправку, которая в Kolda равна 0 ч.

Смотрите также архив погоды в соседних городах и на ближайших метеорологических станциях:

Погода в Georgetown (Гамбия) (75 км)
Погода в Bafata (Гвинея-Биссау) (85 км)
Погода в Basse (Гамбия) (89 км)
Погода в Jenoi (Гамбия) (94 км)
Погода в Kauur (Гамбия) (100 км)
Погода в Sapu (Гамбия) (130 км)
Погода в Bissau (Гвинея-Биссау) (132 км)
Погода в Sibanor (Гамбия) (140 км)
Погода в Kerewan (Гамбия) (140 км)
Погода в Ziguinchor (Сенегал) (146 км)

Пояснения к столбцам:

Ветер - указаны скорость ветра в м/с - средняя за 10 мин, порывы в срок и между сроками (в фигурных скобках) и направление, откуда дует ветер: С - северный, СВ - северо-восточный, В - восточный, ЮВ - юго-восточный, Ю - южный, ЮЗ - юго-западный, З - западный, СЗ - северо-западный.
Видимость - горизонтальная дальность видимости в метрах или километрах. При видимости от 1 до 10 км при отсутствии осадков обычно наблюдается дымка, при ухудшении видимости до 1 км и менее - туман. В сухую погоду видимость может ухудшаться дымом, пылью или мглою.
Явления - указаны атмосферные явления, наблюдавшиеся в срок или в последний час перед сроком; фигурными скобками обозначены явления, наблюдавшиеся между сроками (за 1-3 часа до срока); квадратными скобками обозначены град или гололедные отложения с указанием их диаметра в мм.
Облачность - указаны через наклонную черту общая и нижняя облачность в баллах и высота нижней границы облаков в метрах; квадратными скобками обозначены формы облаков: Ci - перистые, Cs - перисто-слоистые, Cc - перисто-кучевые, Ac - высококучевые, As - высокослоистые, Sc - слоисто-кучевые, Ns - слоисто-дождевые, Cu - кучевые, Cb - кучево-дождевые. Подробнее классификацию облаков см. в Атласе облаков (PDF).
T - Температура воздуха - температура, измеренная на высоте 2 м над землей.
Td - Температура точки росы - температура, при понижении до которой содержащийся в воздухе водяной пар достигнет насыщения.
f - Относительная влажность воздуха - влажноcть воздуха, измеренная на высоте 2 м над землей.
Te - Эффективная температура - температура, которую ощущает одетый по сезону человек в тени. Характеристика душности погоды. При расчете учитывается влияние влажности воздуха и скорости ветра на теплоощущения человека.
Tes - Эффективная температура на солнце - температура, которую ощущает человек, с поправкой на солнечный нагрев. Характеристика знойности погоды. Зависит от высоты солнца над горизонтом, облачности и скорости ветра. Ночью, в пасмурную погоду, а также при ветре 12 м/с и более поправка равна нулю.
P - Атмосферное давление - приведенное к уровню моря атмосферное давление.
Po - Атмосферное давление - измеренное на уровне метеостанции атмосферное давление.
Tmin - Минимальная температура - минимум температуры воздуха на высоте 2 м над землей.
Tmax - Максимальная температура - максимум температуры воздуха на высоте 2 м над землей.
R - Количество осадков - Количество выпавших осадков за период времени, мм. При наведении курсора мыши на число - период времени, за который выпало указанное количество осадков.
R24 - Количество осадков - Количество выпавших осадков за 24 часа, мм.
S - Снежный покров - Высота снежного покрова, см. При наведении курсора мыши на число - состояние снежного покрова и степень покрытия местности в баллах.